Location: Stoke Bliss
(52.2667°N, 2.5167°W)
Time: 16:05:57
(UTC+00:00)

N. Korean satellite - Pass Details

Date: 09 December 2021
Orbit: 446 x 492 km, 97.3° (Epoch: 16 January)

Event Time Altitude Azimuth Distance (km) Brightness Sun altitude
Rises 05:27:26 0° 15° (NNE) 2,467 10.2 -23.1°
Reaches altitude 10° 05:29:29 10° 18° (NNE) 1,587 9.3 -22.8°
Maximum altitude 05:32:53 67° 102° (ESE) 491 6.7 -22.3°
Drops below altitude 10° 05:36:14 10° 186° (S) 1,574 9.2 -21.8°
Sets 05:38:15 0° 189° (S) 2,444 10.2 -21.5°
